Time,TemperatureF,DewpointF,PressureIn,WindDirection,WindDirectionDegrees,WindSpeedMPH,WindSpeedGustMPH,Humidity,HourlyPrecipIn,Conditions,Clouds,dailyrainin,SoftwareType,DateUTC
2013-07-07 00:01:00,56.0,38.0,-100.00,NE,45,4.0,8.0,51,-99.99,,,-99.99,,2013-07-07 07:01:00,
2013-07-07 00:11:00,56.0,38.0,-100.00,NE,45,4.0,6.0,51,-99.99,,,-99.99,,2013-07-07 07:11:00,
2013-07-07 00:22:00,56.0,38.0,-100.00,NE,45,4.0,6.0,51,-99.99,,,-99.99,,2013-07-07 07:22:00,
2013-07-07 00:33:00,56.0,38.0,-100.00,NE,45,4.0,9.0,52,-99.99,,,-99.99,,2013-07-07 07:33:00,
2013-07-07 00:53:00,55.0,38.0,-100.00,NE,45,5.0,11.0,51,-99.99,,,-99.99,,2013-07-07 07:53:00,
2013-07-07 01:02:00,55.0,38.0,-100.00,NE,45,4.0,7.0,52,-99.99,,,-99.99,,2013-07-07 08:02:00,
2013-07-07 01:12:00,55.0,38.0,-100.00,NE,45,3.0,8.0,52,-99.99,,,-99.99,,2013-07-07 08:12:00,
2013-07-07 01:21:00,55.0,38.0,-100.00,NE,45,3.0,8.0,52,-99.99,,,-99.99,,2013-07-07 08:21:00,
2013-07-07 01:33:00,55.0,37.0,-100.00,NE,45,4.0,8.0,51,-99.99,,,-99.99,,2013-07-07 08:33:00,
2013-07-07 01:43:00,54.0,37.0,-100.00,North,0,3.0,7.0,51,-99.99,,,-99.99,,2013-07-07 08:43:00,
2013-07-07 01:53:00,54.0,37.0,-100.00,North,0,3.0,7.0,51,-99.99,,,-99.99,,2013-07-07 08:53:00,
2013-07-07 02:02:00,54.0,36.0,-100.00,NE,45,3.0,6.0,50,-99.99,,,-99.99,,2013-07-07 09:02:00,
2013-07-07 02:12:00,54.0,35.0,-100.00,NE,45,2.0,6.0,50,-99.99,,,-99.99,,2013-07-07 09:12:00,
2013-07-07 02:22:00,54.0,35.0,-100.00,NE,45,2.0,6.0,50,-99.99,,,-99.99,,2013-07-07 09:22:00,
2013-07-07 03:03:00,53.0,34.0,-100.00,NE,45,1.0,4.0,48,-99.99,,,-99.99,,2013-07-07 10:03:00,
2013-07-07 03:12:00,54.0,34.0,-100.00,NE,45,1.0,3.0,47,-99.99,,,-99.99,,2013-07-07 10:12:00,
2013-07-07 03:22:00,54.0,34.0,-100.00,NE,45,1.0,3.0,47,-99.99,,,-99.99,,2013-07-07 10:22:00,
2013-07-07 03:52:00,54.0,33.0,-100.00,NE,45,2.0,3.0,45,-99.99,,,-99.99,,2013-07-07 10:52:00,
2013-07-07 04:02:00,53.0,33.0,-100.00,NE,45,1.0,3.0,46,-99.99,,,-99.99,,2013-07-07 11:02:00,
2013-07-07 04:11:00,53.0,33.0,-100.00,NE,45,1.0,3.0,47,-99.99,,,-99.99,,2013-07-07 11:11:00,
2013-07-07 04:22:00,53.0,33.0,-100.00,NE,45,1.0,3.0,47,-99.99,,,-99.99,,2013-07-07 11:22:00,
2013-07-07 05:02:00,53.0,33.0,-100.00,NE,45,1.0,2.0,46,-99.99,,,-99.99,,2013-07-07 12:02:00,
2013-07-07 05:11:00,53.0,33.0,-100.00,NE,45,1.0,3.0,46,-99.99,,,-99.99,,2013-07-07 12:11:00,
2013-07-07 05:22:00,53.0,33.0,-100.00,NE,45,1.0,3.0,46,-99.99,,,-99.99,,2013-07-07 12:22:00,
2013-07-07 09:22:00,64.0,35.0,-100.00,NW,315,1.0,7.0,34,-99.99,,,-99.99,,2013-07-07 16:22:00,
2013-07-07 09:33:00,63.0,34.0,-100.00,SE,135,4.0,8.0,33,-99.99,,,-99.99,,2013-07-07 16:33:00,
2013-07-07 09:43:00,63.0,34.0,-100.00,East,90,4.0,10.0,34,-99.99,,,-99.99,,2013-07-07 16:43:00,
2013-07-07 09:53:00,63.0,34.0,-100.00,East,90,4.0,10.0,34,-99.99,,,-99.99,,2013-07-07 16:53:00,
2013-07-07 10:02:00,64.0,37.0,-100.00,East,90,4.0,8.0,36,-99.99,,,-99.99,,2013-07-07 17:02:00,
2013-07-07 10:12:00,64.0,35.0,-100.00,South,180,4.0,8.0,34,-99.99,,,-99.99,,2013-07-07 17:12:00,
2013-07-07 10:22:00,64.0,35.0,-100.00,South,180,4.0,8.0,34,-99.99,,,-99.99,,2013-07-07 17:22:00,
2013-07-07 10:34:00,66.0,37.0,-100.00,SE,135,3.0,6.0,34,-99.99,,,-99.99,,2013-07-07 17:34:00,
2013-07-07 10:43:00,68.0,39.0,-100.00,East,90,2.0,8.0,35,-99.99,,,-99.99,,2013-07-07 17:43:00,
2013-07-07 10:53:00,68.0,39.0,-100.00,East,90,2.0,8.0,35,-99.99,,,-99.99,,2013-07-07 17:53:00,
2013-07-07 11:01:00,66.0,33.0,-100.00,West,270,2.0,12.0,29,-99.99,,,-99.99,,2013-07-07 18:01:00,
2013-07-07 11:11:00,68.0,33.0,-100.00,NW,315,4.0,11.0,27,-99.99,,,-99.99,,2013-07-07 18:11:00,
2013-07-07 11:22:00,68.0,33.0,-100.00,NW,315,4.0,11.0,27,-99.99,,,-99.99,,2013-07-07 18:22:00,
2013-07-07 11:33:00,68.0,34.0,-100.00,West,270,3.0,11.0,28,-99.99,,,-99.99,,2013-07-07 18:33:00,
2013-07-07 11:43:00,67.0,34.0,-100.00,SW,225,3.0,9.0,30,-99.99,,,-99.99,,2013-07-07 18:43:00,
2013-07-07 11:53:00,67.0,34.0,-100.00,SW,225,3.0,9.0,30,-99.99,,,-99.99,,2013-07-07 18:53:00,
2013-07-07 12:01:00,70.0,35.0,-100.00,West,270,3.0,16.0,28,-99.99,,,-99.99,,2013-07-07 19:01:00,
2013-07-07 12:11:00,70.0,34.0,-100.00,West,270,6.0,9.0,26,-99.99,,,-99.99,,2013-07-07 19:11:00,
2013-07-07 12:22:00,70.0,34.0,-100.00,West,270,6.0,9.0,26,-99.99,,,-99.99,,2013-07-07 19:22:00,
2013-07-07 12:33:00,69.0,33.0,-100.00,West,270,8.0,12.0,26,-99.99,,,-99.99,,2013-07-07 19:33:00,
2013-07-07 12:54:00,71.0,34.0,-100.00,West,270,4.0,13.0,25,-99.99,,,-99.99,,2013-07-07 19:54:00,
2013-07-07 13:02:00,70.0,33.0,-100.00,SW,225,3.0,10.0,25,-99.99,,,-99.99,,2013-07-07 20:02:00,
2013-07-07 13:11:00,70.0,29.0,-100.00,South,180,3.0,12.0,22,-99.99,,,-99.99,,2013-07-07 20:11:00,
2013-07-07 13:22:00,70.0,29.0,-100.00,South,180,3.0,12.0,22,-99.99,,,-99.99,,2013-07-07 20:22:00,
2013-07-07 14:02:00,74.0,23.0,-100.00,West,270,4.0,16.0,15,-99.99,,,-99.99,,2013-07-07 21:02:00,
2013-07-07 14:11:00,73.0,34.0,-100.00,West,270,8.0,17.0,24,-99.99,,,-99.99,,2013-07-07 21:11:00,
2013-07-07 14:22:00,73.0,34.0,-100.00,West,270,8.0,17.0,24,-99.99,,,-99.99,,2013-07-07 21:22:00,
2013-07-07 14:33:00,73.0,34.0,-100.00,West,270,6.0,13.0,24,-99.99,,,-99.99,,2013-07-07 21:33:00,
2013-07-07 14:43:00,75.0,36.0,-100.00,NW,315,6.0,11.0,24,-99.99,,,-99.99,,2013-07-07 21:43:00,
2013-07-07 14:53:00,75.0,36.0,-100.00,NW,315,6.0,11.0,24,-99.99,,,-99.99,,2013-07-07 21:53:00,
2013-07-07 15:01:00,73.0,33.0,-100.00,West,270,4.0,15.0,23,-99.99,,,-99.99,,2013-07-07 22:01:00,
2013-07-07 15:11:00,72.0,37.0,-100.00,West,270,9.0,17.0,28,-99.99,,,-99.99,,2013-07-07 22:11:00,
2013-07-07 15:22:00,72.0,37.0,-100.00,West,270,9.0,17.0,28,-99.99,,,-99.99,,2013-07-07 22:22:00,
2013-07-07 15:33:00,76.0,35.0,-100.00,West,270,9.0,17.0,23,-99.99,,,-99.99,,2013-07-07 22:33:00,
2013-07-07 15:53:00,75.0,37.0,-100.00,NW,315,6.0,17.0,25,-99.99,,,-99.99,,2013-07-07 22:53:00,
2013-07-07 16:01:00,74.0,36.0,-100.00,West,270,6.0,15.0,25,-99.99,,,-99.99,,2013-07-07 23:01:00,
2013-07-07 16:12:00,73.0,36.0,-100.00,West,270,10.0,20.0,26,-99.99,,,-99.99,,2013-07-07 23:12:00,
2013-07-07 16:22:00,73.0,36.0,-100.00,West,270,10.0,20.0,26,-99.99,,,-99.99,,2013-07-07 23:22:00,
2013-07-07 16:33:00,73.0,37.0,-100.00,West,270,12.0,17.0,27,-99.99,,,-99.99,,2013-07-07 23:33:00,
2013-07-07 16:43:00,72.0,35.0,-100.00,West,270,12.0,18.0,26,-99.99,,,-99.99,,2013-07-07 23:43:00,
2013-07-07 16:52:00,72.0,35.0,-100.00,West,270,12.0,18.0,26,-99.99,,,-99.99,,2013-07-07 23:52:00,
2013-07-07 17:01:00,71.0,35.0,-100.00,West,270,8.0,17.0,27,-99.99,,,-99.99,,2013-07-08 00:01:00,
2013-07-07 17:11:00,71.0,35.0,-100.00,West,270,8.0,17.0,27,-99.99,,,-99.99,,2013-07-08 00:11:00,
2013-07-07 17:22:00,72.0,36.0,-100.00,West,270,6.0,17.0,27,-99.99,,,-99.99,,2013-07-08 00:22:00,
2013-07-07 17:33:00,72.0,36.0,-100.00,West,270,9.0,15.0,27,-99.99,,,-99.99,,2013-07-08 00:33:00,
2013-07-07 17:43:00,72.0,33.0,-100.00,West,270,12.0,18.0,24,-99.99,,,-99.99,,2013-07-08 00:43:00,
2013-07-07 17:53:00,72.0,33.0,-100.00,West,270,12.0,18.0,24,-99.99,,,-99.99,,2013-07-08 00:53:00,
2013-07-07 18:01:00,72.0,37.0,-100.00,West,270,8.0,16.0,28,-99.99,,,-99.99,,2013-07-08 01:01:00,
2013-07-07 18:11:00,70.0,37.0,-100.00,SW,225,9.0,17.0,30,-99.99,,,-99.99,,2013-07-08 01:11:00,
2013-07-07 18:21:00,70.0,37.0,-100.00,SW,225,9.0,17.0,30,-99.99,,,-99.99,,2013-07-08 01:21:00,
2013-07-07 18:32:00,70.0,40.0,-100.00,West,270,9.0,14.0,33,-99.99,,,-99.99,,2013-07-08 01:32:00,
2013-07-07 18:42:00,68.0,39.0,-100.00,West,270,9.0,20.0,34,-99.99,,,-99.99,,2013-07-08 01:42:00,
2013-07-07 18:52:00,68.0,39.0,-100.00,West,270,9.0,20.0,34,-99.99,,,-99.99,,2013-07-08 01:52:00,
2013-07-07 19:02:00,70.0,38.0,-100.00,West,270,9.0,17.0,32,-99.99,,,-99.99,,2013-07-08 02:02:00,
2013-07-07 19:11:00,68.0,39.0,-100.00,West,270,10.0,18.0,34,-99.99,,,-99.99,,2013-07-08 02:11:00,
2013-07-07 19:22:00,68.0,39.0,-100.00,West,270,10.0,18.0,34,-99.99,,,-99.99,,2013-07-08 02:22:00,
2013-07-07 19:33:00,69.0,36.0,-100.00,West,270,8.0,17.0,30,-99.99,,,-99.99,,2013-07-08 02:33:00,
2013-07-07 19:42:00,67.0,36.0,-100.00,SW,225,6.0,11.0,32,-99.99,,,-99.99,,2013-07-08 02:42:00,
2013-07-07 19:52:00,67.0,36.0,-100.00,SW,225,6.0,11.0,32,-99.99,,,-99.99,,2013-07-08 02:52:00,
2013-07-07 20:01:00,67.0,33.0,-100.00,South,180,5.0,16.0,28,-99.99,,,-99.99,,2013-07-08 03:01:00,
2013-07-07 20:11:00,67.0,36.0,-100.00,West,270,3.0,7.0,32,-99.99,,,-99.99,,2013-07-08 03:11:00,
2013-07-07 20:22:00,67.0,36.0,-100.00,West,270,3.0,7.0,32,-99.99,,,-99.99,,2013-07-08 03:22:00,
2013-07-07 20:34:00,66.0,34.0,-100.00,West,270,5.0,11.0,30,-99.99,,,-99.99,,2013-07-08 03:34:00,
2013-07-07 20:42:00,63.0,32.0,-100.00,NW,315,4.0,8.0,31,-99.99,,,-99.99,,2013-07-08 03:42:00,
2013-07-07 20:52:00,63.0,32.0,-100.00,NW,315,4.0,8.0,31,-99.99,,,-99.99,,2013-07-08 03:52:00,
2013-07-07 21:01:00,63.0,33.0,-100.00,NW,315,4.0,9.0,32,-99.99,,,-99.99,,2013-07-08 04:01:00,
2013-07-07 21:11:00,62.0,30.0,-100.00,NW,315,9.0,13.0,30,-99.99,,,-99.99,,2013-07-08 04:11:00,
2013-07-07 21:22:00,62.0,30.0,-100.00,NW,315,9.0,13.0,30,-99.99,,,-99.99,,2013-07-08 04:22:00,
2013-07-07 21:33:00,61.0,29.0,-100.00,NW,315,11.0,18.0,29,-99.99,,,-99.99,,2013-07-08 04:33:00,
2013-07-07 21:42:00,59.0,33.0,-100.00,SE,135,4.0,12.0,37,-99.99,,,-99.99,,2013-07-08 04:42:00,
2013-07-07 21:53:00,59.0,33.0,-100.00,SE,135,4.0,12.0,37,-99.99,,,-99.99,,2013-07-08 04:53:00,
2013-07-07 22:01:00,57.0,37.0,-100.00,East,90,3.0,9.0,46,-99.99,,,-99.99,,2013-07-08 05:01:00,
2013-07-07 22:22:00,58.0,37.0,-100.00,SW,225,1.0,4.0,45,-99.99,,,-99.99,,2013-07-08 05:22:00,